SWARM A

Last updated on Fri Sep 11 2026 00:03:31 GMT+0000 (Coordinated Universal Time)

1 39452U 13067B 26253.59660961 .00008583 00000+0 14888-3 0 9995 2 39452 87.3348 24.5039 0002322 98.4538 261.6987 15.50684114719480
UTC large
Height (km)
Speed (km/s)
/
Latitude / Longitude
Inclination (degrees)
Orbital Period (minutes)
Azimuth
Elevation
Range (km)
Doppler Factor

Next 0 passes for location: London (51.5072 / 0.1276)

No passes found over London.
SWARM A